| time (UTC) | temp F | wind direction | speed MPH | gust MPH | rain 1hr in | rain 24hr in | rain mn in | humidity % | barometer mb |
| 20260510002204 | 85 | 258 | 0.0 | 0.0 | 0.00 | 0.00 | 0.00 | 36 | 1007.8 |
| 20260510001204 | 87 | 258 | 0.0 | 0.0 | 0.00 | 0.00 | 0.00 | 36 | 1008.0 |
| 20260510000704 | 87 | 258 | 0.0 | 0.0 | 0.00 | 0.00 | 0.00 | 34 | 1007.9 |
| 20260510000204 | 88 | 258 | 0.0 | 0.0 | 0.00 | 0.00 | 0.00 | 34 | 1007.9 |
| 20260509235703 | 87 | 258 | 0.0 | 0.0 | 0.00 | 0.00 | 0.00 | 31 | 1008.0 |
| 20260509234203 | 87 | 258 | 0.0 | 0.0 | 0.00 | 0.00 | 0.00 | 33 | 1008.0 |
| 20260509233703 | 87 | 258 | 0.0 | 0.0 | 0.00 | 0.00 | 0.00 | 33 | 1008.0 |
| 20260509233203 | 86 | 258 | 0.0 | 0.0 | 0.00 | 0.00 | 0.00 | 32 | 1008.0 |
| 20260509232703 | 87 | 258 | 0.0 | 0.0 | 0.00 | 0.00 | 0.00 | 36 | 1008.0 |
| 20260509231703 | 87 | 234 | 0.0 | 1.0 | 0.00 | 0.00 | 0.00 | 34 | 1008.0 |
| 20260509231204 | 86 | 233 | 0.0 | 1.0 | 0.00 | 0.00 | 0.00 | 33 | 1008.1 |
| 20260509230704 | 86 | 237 | 0.0 | 1.0 | 0.00 | 0.00 | 0.00 | 30 | 1008.0 |
| 20260509230203 | 86 | 237 | 0.0 | 1.0 | 0.00 | 0.00 | 0.00 | 33 | 1008.0 |
| 20260509225703 | 85 | 238 | 0.0 | 1.0 | 0.00 | 0.00 | 0.00 | 33 | 1008.0 |
| 20260509224704 | 83 | 274 | 1.0 | 2.0 | 0.00 | 0.00 | 0.00 | 34 | 1008.0 |
| 20260509224204 | 83 | 342 | 2.0 | 3.0 | 0.00 | 0.00 | 0.00 | 32 | 1008.0 |
| 20260509223704 | 83 | 274 | 1.0 | 5.0 | 0.00 | 0.00 | 0.00 | 32 | 1008.0 |
| 20260509223204 | 84 | 276 | 2.0 | 5.0 | 0.00 | 0.00 | 0.00 | 34 | 1008.0 |
| 20260509222704 | 85 | 9 | 2.0 | 3.0 | 0.00 | 0.00 | 0.00 | 32 | 1007.9 |
| 20260509222204 | 85 | 257 | 0.0 | 2.0 | 0.00 | 0.00 | 0.00 | 34 | 1008.0 |
| 20260509221704 | 85 | 331 | 0.0 | 2.0 | 0.00 | 0.00 | 0.00 | 34 | 1008.0 |
| 20260509221204 | 85 | 243 | 1.0 | 3.0 | 0.00 | 0.00 | 0.00 | 35 | 1008.1 |
| 20260509220703 | 85 | 252 | 1.0 | 3.0 | 0.00 | 0.00 | 0.00 | 34 | 1008.0 |
| 20260509220204 | 85 | 3 | 1.0 | 2.0 | 0.00 | 0.00 | 0.00 | 34 | 1008.0 |
| 20260509215703 | 84 | 261 | 1.0 | 6.0 | 0.00 | 0.00 | 0.00 | 37 | 1008.1 |
| 20260509215203 | 85 | 255 | 1.0 | 3.0 | 0.00 | 0.00 | 0.00 | 34 | 1008.0 |
| 20260509214704 | 85 | 257 | 0.0 | 2.0 | 0.00 | 0.00 | 0.00 | 32 | 1008.1 |
| 20260509214204 | 84 | 347 | 0.0 | 3.0 | 0.00 | 0.00 | 0.00 | 32 | 1008.1 |
| 20260509213703 | 84 | 250 | 1.0 | 5.0 | 0.00 | 0.00 | 0.00 | 34 | 1008.1 |
| 20260509213203 | 85 | 268 | 3.0 | 7.0 | 0.00 | 0.00 | 0.00 | 33 | 1008.1 |
| 20260509212703 | 86 | 96 | 0.0 | 1.0 | 0.00 | 0.00 | 0.00 | 34 | 1008.1 |
| 20260509212204 | 85 | 241 | 0.0 | 1.0 | 0.00 | 0.00 | 0.00 | 32 | 1008.1 |
| 20260509211203 | 85 | 273 | 1.0 | 3.0 | 0.00 | 0.00 | 0.00 | 32 | 1008.2 |
| 20260509210704 | 85 | 253 | 1.0 | 3.0 | 0.00 | 0.00 | 0.00 | 32 | 1008.2 |
| 20260509205704 | 86 | 217 | 0.0 | 2.0 | 0.00 | 0.00 | 0.00 | 34 | 1008.2 |
| 20260509205204 | 85 | 261 | 2.0 | 3.0 | 0.00 | 0.00 | 0.00 | 33 | 1008.3 |
| 20260509204704 | 85 | 291 | 1.0 | 3.0 | 0.00 | 0.00 | 0.00 | 32 | 1008.3 |
| 20260509204203 | 84 | 94 | 0.0 | 2.0 | 0.00 | 0.00 | 0.00 | 32 | 1008.3 |
| 20260509203703 | 84 | 288 | 0.0 | 2.0 | 0.00 | 0.00 | 0.00 | 33 | 1008.4 |
| 20260509202703 | 82 | 32 | 1.0 | 3.0 | 0.00 | 0.00 | 0.00 | 33 | 1008.5 |
| 20260509202203 | 83 | 56 | 4.0 | 7.0 | 0.00 | 0.00 | 0.00 | 31 | 1008.6 |
| 20260509201703 | 82 | 265 | 1.0 | 6.0 | 0.00 | 0.00 | 0.00 | 32 | 1008.6 |
| 20260509200703 | 84 | 57 | 3.0 | 5.0 | 0.00 | 0.00 | 0.00 | 32 | 1008.8 |
| 20260509200203 | 84 | 342 | 1.0 | 2.0 | 0.00 | 0.00 | 0.00 | 34 | 1008.8 |
| 20260509195704 | 83 | 307 | 1.0 | 3.0 | 0.00 | 0.00 | 0.00 | 35 | 1009.0 |
| 20260509194704 | 84 | 303 | 1.0 | 5.0 | 0.00 | 0.00 | 0.00 | 34 | 1009.0 |
| 20260509194204 | 84 | 353 | 1.0 | 3.0 | 0.00 | 0.00 | 0.00 | 32 | 1009.0 |
| 20260509193704 | 83 | 287 | 1.0 | 3.0 | 0.00 | 0.00 | 0.00 | 37 | 1009.0 |
| 20260509193203 | 83 | 263 | 1.0 | 3.0 | 0.00 | 0.00 | 0.00 | 36 | 1009.1 |
| 20260509192704 | 83 | 207 | 3.0 | 3.0 | 0.00 | 0.00 | 0.00 | 36 | 1009.2 |
| 20260509192204 | 83 | 231 | 1.0 | 3.0 | 0.00 | 0.00 | 0.00 | 35 | 1009.2 |
| 20260509191704 | 82 | 309 | 0.0 | 2.0 | 0.00 | 0.00 | 0.00 | 35 | 1009.1 |
| 20260509191204 | 82 | 34 | 3.0 | 5.0 | 0.00 | 0.00 | 0.00 | 33 | 1009.1 |
| 20260509190704 | 83 | 43 | 1.0 | 6.0 | 0.00 | 0.00 | 0.00 | 38 | 1009.2 |
| 20260509190204 | 83 | 261 | 2.0 | 8.0 | 0.00 | 0.00 | 0.00 | 34 | 1009.3 |
| 20260509185704 | 83 | 273 | 2.0 | 6.0 | 0.00 | 0.00 | 0.00 | 38 | 1009.2 |
| 20260509184703 | 83 | 254 | 4.0 | 7.0 | 0.00 | 0.00 | 0.00 | 39 | 1009.2 |
| 20260509184203 | 82 | 211 | 2.0 | 5.0 | 0.00 | 0.00 | 0.00 | 39 | 1009.2 |
| 20260509183704 | 82 | 118 | 0.0 | 3.0 | 0.00 | 0.00 | 0.00 | 39 | 1009.2 |
| 20260509183204 | 81 | 238 | 2.0 | 3.0 | 0.00 | 0.00 | 0.00 | 41 | 1009.3 |
| 20260509182704 | 81 | 254 | 3.0 | 7.0 | 0.00 | 0.00 | 0.00 | 43 | 1009.3 |
| 20260509182204 | 81 | 93 | 2.0 | 3.0 | 0.00 | 0.00 | 0.00 | 41 | 1009.2 |
| 20260509181704 | 81 | 120 | 3.0 | 5.0 | 0.00 | 0.00 | 0.00 | 41 | 1009.3 |
| 20260509181203 | 81 | 297 | 2.0 | 3.0 | 0.00 | 0.00 | 0.00 | 41 | 1009.2 |
| 20260509180204 | 81 | 274 | 1.0 | 3.0 | 0.00 | 0.00 | 0.00 | 42 | 1009.3 |
| 20260509175703 | 80 | 40 | 1.0 | 5.0 | 0.00 | 0.00 | 0.00 | 41 | 1009.3 |
| 20260509175203 | 80 | 276 | 1.0 | 5.0 | 0.00 | 0.00 | 0.00 | 42 | 1009.4 |
| 20260509174203 | 80 | 244 | 2.0 | 6.0 | 0.00 | 0.00 | 0.00 | 41 | 1009.5 |
| 20260509173203 | 81 | 227 | 3.0 | 6.0 | 0.00 | 0.00 | 0.00 | 41 | 1009.5 |
| 20260509172204 | 80 | 256 | 0.0 | 3.0 | 0.00 | 0.00 | 0.00 | 46 | 1009.6 |
| 20260509171704 | 80 | 63 | 1.0 | 3.0 | 0.00 | 0.00 | 0.00 | 39 | 1009.6 |
| 20260509171204 | 80 | 284 | 2.0 | 6.0 | 0.00 | 0.00 | 0.00 | 41 | 1009.7 |
| 20260509170703 | 80 | 242 | 0.0 | 2.0 | 0.00 | 0.00 | 0.00 | 42 | 1009.6 |
| 20260509170203 | 80 | 1 | 0.0 | 3.0 | 0.00 | 0.00 | 0.00 | 42 | 1009.7 |
| 20260509165704 | 80 | 289 | 1.0 | 3.0 | 0.00 | 0.00 | 0.00 | 46 | 1009.7 |
| 20260509164704 | 78 | 254 | 1.0 | 5.0 | 0.00 | 0.00 | 0.00 | 46 | 1009.7 |
| 20260509164204 | 78 | 316 | 1.0 | 7.0 | 0.00 | 0.00 | 0.00 | 47 | 1009.8 |
| 20260509163704 | 78 | 274 | 2.0 | 5.0 | 0.00 | 0.00 | 0.00 | 46 | 1009.8 |
| 20260509163204 | 79 | 286 | 2.0 | 5.0 | 0.00 | 0.00 | 0.00 | 44 | 1009.8 |
| 20260509162203 | 78 | 301 | 1.0 | 3.0 | 0.00 | 0.00 | 0.00 | 48 | 1009.8 |
| 20260509161703 | 78 | 191 | 3.0 | 6.0 | 0.00 | 0.00 | 0.00 | 46 | 1009.8 |
| 20260509161203 | 77 | 213 | 1.0 | 3.0 | 0.00 | 0.00 | 0.00 | 52 | 1009.7 |
| 20260509160703 | 76 | 273 | 0.0 | 3.0 | 0.00 | 0.00 | 0.00 | 54 | 1009.7 |
| 20260509160204 | 76 | 181 | 2.0 | 3.0 | 0.00 | 0.00 | 0.00 | 52 | 1009.7 |
| 20260509155703 | 76 | 273 | 1.0 | 3.0 | 0.00 | 0.00 | 0.00 | 51 | 1009.7 |
| 20260509155204 | 77 | 262 | 2.0 | 6.0 | 0.00 | 0.00 | 0.00 | 51 | 1009.7 |
| 20260509154703 | 77 | 37 | 0.0 | 1.0 | 0.00 | 0.00 | 0.00 | 58 | 1009.7 |
| 20260509153703 | 75 | 177 | 2.0 | 3.0 | 0.00 | 0.00 | 0.00 | 59 | 1009.6 |
| 20260509153203 | 75 | 196 | 1.0 | 3.0 | 0.00 | 0.00 | 0.00 | 62 | 1009.6 |
| 20260509152704 | 75 | 258 | 0.0 | 2.0 | 0.00 | 0.00 | 0.00 | 65 | 1009.7 |
| 20260509151704 | 73 | 232 | 0.0 | 1.0 | 0.00 | 0.00 | 0.00 | 64 | 1009.7 |
| 20260509151204 | 72 | 200 | 1.0 | 2.0 | 0.00 | 0.00 | 0.00 | 65 | 1009.7 |
| 20260509150704 | 72 | 203 | 2.0 | 5.0 | 0.00 | 0.00 | 0.00 | 64 | 1009.7 |
| 20260509150204 | 72 | 187 | 2.0 | 6.0 | 0.00 | 0.00 | 0.00 | 68 | 1009.7 |
| 20260509145704 | 71 | 80 | 0.0 | 2.0 | 0.00 | 0.00 | 0.00 | 71 | 1009.8 |
| 20260509145204 | 70 | 202 | 1.0 | 3.0 | 0.00 | 0.00 | 0.00 | 72 | 1009.8 |
| 20260509144704 | 70 | 202 | 2.0 | 3.0 | 0.00 | 0.00 | 0.00 | 72 | 1009.8 |
| 20260509144204 | 69 | 202 | 1.0 | 3.0 | 0.00 | 0.00 | 0.00 | 74 | 1009.8 |
| 20260509143704 | 69 | 198 | 2.0 | 3.0 | 0.00 | 0.00 | 0.00 | 74 | 1009.8 |
| 20260509143204 | 69 | 220 | 0.0 | 0.0 | 0.00 | 0.00 | 0.00 | 77 | 1009.8 |
| 20260509142204 | 69 | 201 | 2.0 | 3.0 | 0.00 | 0.00 | 0.00 | 77 | 1009.7 |
| 20260509141703 | 68 | 217 | 1.0 | 2.0 | 0.00 | 0.00 | 0.00 | 78 | 1009.6 |
| 20260509141203 | 67 | 116 | 1.0 | 3.0 | 0.00 | 0.00 | 0.00 | 80 | 1009.6 |
| 20260509140704 | 66 | 255 | 0.0 | 1.0 | 0.00 | 0.00 | 0.00 | 81 | 1009.6 |
| 20260509140204 | 65 | 151 | 1.0 | 3.0 | 0.00 | 0.00 | 0.00 | 81 | 1009.7 |
| 20260509135703 | 65 | 195 | 1.0 | 3.0 | 0.00 | 0.00 | 0.00 | 81 | 1009.6 |
| 20260509135203 | 64 | 186 | 1.0 | 3.0 | 0.00 | 0.00 | 0.00 | 83 | 1009.5 |
| 20260509134703 | 64 | 203 | 1.0 | 2.0 | 0.00 | 0.00 | 0.00 | 84 | 1009.5 |
| 20260509134203 | 63 | 297 | 1.0 | 3.0 | 0.00 | 0.00 | 0.00 | 84 | 1009.4 |
| 20260509133703 | 63 | 253 | 2.0 | 6.0 | 0.00 | 0.00 | 0.00 | 85 | 1009.5 |
| 20260509132703 | 62 | 205 | 2.0 | 3.0 | 0.00 | 0.00 | 0.00 | 85 | 1009.4 |
| 20260509132203 | 62 | 180 | 0.0 | 1.0 | 0.00 | 0.00 | 0.00 | 87 | 1009.3 |
| 20260509131204 | 61 | 271 | 2.0 | 3.0 | 0.00 | 0.00 | 0.00 | 88 | 1009.3 |
| 20260509130704 | 60 | 290 | 2.0 | 6.0 | 0.00 | 0.00 | 0.00 | 88 | 1009.2 |
| 20260509130203 | 60 | 280 | 2.0 | 3.0 | 0.00 | 0.00 | 0.00 | 89 | 1009.2 |
| 20260509125704 | 59 | 268 | 1.0 | 3.0 | 0.00 | 0.00 | 0.00 | 89 | 1009.1 |
| 20260509125203 | 59 | 277 | 1.0 | 3.0 | 0.00 | 0.00 | 0.00 | 90 | 1009.1 |
| 20260509124703 | 58 | 277 | 2.0 | 3.0 | 0.00 | 0.00 | 0.00 | 90 | 1009.1 |
| 20260509123703 | 57 | 280 | 1.0 | 3.0 | 0.00 | 0.00 | 0.00 | 91 | 1009.2 |
| 20260509123203 | 57 | 277 | 2.0 | 3.0 | 0.00 | 0.00 | 0.00 | 92 | 1009.1 |
| 20260509122704 | 56 | 263 | 1.0 | 3.0 | 0.00 | 0.00 | 0.00 | 92 | 1009.1 |
| 20260509122204 | 56 | 266 | 1.0 | 2.0 | 0.00 | 0.00 | 0.00 | 93 | 1009.0 |
| 20260509121704 | 56 | 257 | 0.0 | 1.0 | 0.00 | 0.00 | 0.00 | 93 | 1009.0 |
| 20260509121204 | 55 | 261 | 0.0 | 1.0 | 0.00 | 0.00 | 0.00 | 93 | 1009.0 |
| 20260509120703 | 55 | 274 | 0.0 | 0.0 | 0.00 | 0.00 | 0.00 | 93 | 1009.0 |
| 20260509120203 | 55 | 276 | 0.0 | 0.0 | 0.00 | 0.00 | 0.00 | 94 | 1009.0 |
| 20260509115204 | 55 | 268 | 1.0 | 2.0 | 0.00 | 0.00 | 0.00 | 94 | 1008.8 |
| 20260509114704 | 55 | 280 | 0.0 | 0.0 | 0.00 | 0.00 | 0.00 | 93 | 1008.8 |
| 20260509113704 | 55 | 269 | 0.0 | 2.0 | 0.00 | 0.00 | 0.00 | 93 | 1008.7 |
| 20260509113204 | 55 | 268 | 0.0 | 1.0 | 0.00 | 0.00 | 0.00 | 93 | 1008.7 |
| 20260509112704 | 55 | 265 | 0.0 | 1.0 | 0.00 | 0.00 | 0.00 | 93 | 1008.5 |
| 20260509111704 | 55 | 264 | 1.0 | 2.0 | 0.00 | 0.00 | 0.00 | 92 | 1008.5 |
| 20260509111204 | 55 | 266 | 1.0 | 3.0 | 0.00 | 0.00 | 0.00 | 92 | 1008.4 |
| 20260509110704 | 55 | 264 | 0.0 | 1.0 | 0.00 | 0.00 | 0.00 | 91 | 1008.3 |
| 20260509105703 | 56 | 273 | 2.0 | 3.0 | 0.00 | 0.00 | 0.00 | 91 | 1008.2 |
| 20260509105203 | 56 | 268 | 2.0 | 3.0 | 0.00 | 0.00 | 0.00 | 91 | 1008.2 |
| 20260509104703 | 56 | 276 | 1.0 | 3.0 | 0.00 | 0.00 | 0.00 | 91 | 1008.2 |
| 20260509104204 | 56 | 272 | 1.0 | 3.0 | 0.00 | 0.00 | 0.00 | 91 | 1008.2 |
| 20260509103204 | 56 | 269 | 1.0 | 1.0 | 0.00 | 0.00 | 0.00 | 90 | 1008.3 |
| 20260509102704 | 56 | 284 | 0.0 | 2.0 | 0.00 | 0.00 | 0.00 | 89 | 1008.3 |
| 20260509102204 | 57 | 283 | 1.0 | 5.0 | 0.00 | 0.00 | 0.00 | 89 | 1008.3 |
| 20260509101704 | 57 | 269 | 1.0 | 3.0 | 0.00 | 0.00 | 0.00 | 88 | 1008.3 |
| 20260509101203 | 57 | 252 | 1.0 | 3.0 | 0.00 | 0.00 | 0.00 | 88 | 1008.4 |
| 20260509100205 | 57 | 279 | 2.0 | 6.0 | 0.00 | 0.00 | 0.00 | 88 | 1008.4 |
| 20260509095203 | 57 | 275 | 2.0 | 3.0 | 0.00 | 0.00 | 0.00 | 88 | 1008.5 |
| 20260509094704 | 58 | 263 | 1.0 | 5.0 | 0.00 | 0.00 | 0.00 | 87 | 1008.4 |
| 20260509094204 | 58 | 260 | 2.0 | 5.0 | 0.00 | 0.00 | 0.00 | 87 | 1008.4 |
| 20260509093704 | 58 | 260 | 2.0 | 5.0 | 0.00 | 0.00 | 0.00 | 87 | 1008.5 |
| 20260509093203 | 58 | 266 | 2.0 | 6.0 | 0.00 | 0.00 | 0.00 | 87 | 1008.5 |
| 20260509092704 | 58 | 271 | 2.0 | 3.0 | 0.00 | 0.00 | 0.00 | 87 | 1008.5 |
| 20260509092204 | 58 | 274 | 2.0 | 6.0 | 0.00 | 0.00 | 0.00 | 87 | 1008.5 |
| 20260509091704 | 57 | 274 | 2.0 | 3.0 | 0.00 | 0.00 | 0.00 | 88 | 1008.4 |
| 20260509091204 | 57 | 279 | 1.0 | 3.0 | 0.00 | 0.00 | 0.00 | 88 | 1008.6 |
| 20260509090704 | 57 | 266 | 1.0 | 2.0 | 0.00 | 0.00 | 0.00 | 88 | 1008.5 |
| 20260509090204 | 58 | 273 | 0.0 | 1.0 | 0.00 | 0.00 | 0.00 | 88 | 1008.6 |
| 20260509085703 | 58 | 274 | 0.0 | 1.0 | 0.00 | 0.00 | 0.00 | 88 | 1008.6 |
| 20260509085203 | 58 | 281 | 1.0 | 3.0 | 0.00 | 0.00 | 0.00 | 88 | 1008.8 |
| 20260509084704 | 57 | 273 | 2.0 | 7.0 | 0.00 | 0.00 | 0.00 | 89 | 1008.8 |
| 20260509083704 | 57 | 267 | 0.0 | 1.0 | 0.00 | 0.00 | 0.00 | 89 | 1008.9 |
| 20260509083204 | 57 | 247 | 0.0 | 0.0 | 0.00 | 0.00 | 0.00 | 89 | 1008.9 |
| 20260509082704 | 57 | 210 | 0.0 | 0.0 | 0.00 | 0.00 | 0.00 | 89 | 1008.9 |
| 20260509082204 | 57 | 210 | 0.0 | 0.0 | 0.00 | 0.00 | 0.00 | 89 | 1008.8 |
| 20260509081704 | 57 | 209 | 0.0 | 0.0 | 0.00 | 0.00 | 0.00 | 88 | 1008.8 |
| 20260509081204 | 58 | 243 | 0.0 | 0.0 | 0.00 | 0.00 | 0.00 | 88 | 1008.7 |
| 20260509080704 | 58 | 243 | 1.0 | 2.0 | 0.00 | 0.00 | 0.00 | 87 | 1008.7 |
| 20260509080204 | 58 | 202 | 1.0 | 3.0 | 0.00 | 0.00 | 0.00 | 87 | 1008.7 |
| 20260509075704 | 58 | 211 | 0.0 | 2.0 | 0.00 | 0.00 | 0.00 | 87 | 1008.7 |
| 20260509075204 | 59 | 217 | 1.0 | 2.0 | 0.00 | 0.00 | 0.00 | 86 | 1008.6 |
| 20260509074703 | 59 | 222 | 1.0 | 2.0 | 0.00 | 0.00 | 0.00 | 86 | 1008.4 |
| 20260509073704 | 59 | 257 | 1.0 | 3.0 | 0.00 | 0.00 | 0.00 | 85 | 1008.4 |
| 20260509073204 | 59 | 270 | 1.0 | 3.0 | 0.00 | 0.00 | 0.00 | 85 | 1008.4 |
| 20260509072704 | 59 | 271 | 1.0 | 3.0 | 0.00 | 0.00 | 0.00 | 85 | 1008.3 |
| 20260509071703 | 59 | 268 | 1.0 | 3.0 | 0.00 | 0.00 | 0.00 | 85 | 1008.4 |
| 20260509071204 | 59 | 273 | 2.0 | 3.0 | 0.00 | 0.00 | 0.00 | 86 | 1008.4 |
| 20260509070704 | 59 | 273 | 1.0 | 3.0 | 0.00 | 0.00 | 0.00 | 85 | 1008.5 |
| 20260509070203 | 59 | 276 | 0.0 | 2.0 | 0.00 | 0.00 | 0.00 | 85 | 1008.4 |
| 20260509065204 | 60 | 269 | 1.0 | 5.0 | 0.00 | 0.00 | 0.00 | 85 | 1008.5 |
| 20260509064704 | 60 | 282 | 2.0 | 3.0 | 0.00 | 0.00 | 0.00 | 85 | 1008.5 |
| 20260509063704 | 59 | 276 | 0.0 | 2.0 | 0.00 | 0.00 | 0.00 | 87 | 1008.6 |
| 20260509063204 | 59 | 273 | 1.0 | 3.0 | 0.00 | 0.00 | 0.00 | 88 | 1008.6 |
| 20260509062704 | 58 | 278 | 0.0 | 0.0 | 0.00 | 0.00 | 0.00 | 88 | 1008.7 |
| 20260509062204 | 58 | 207 | 0.0 | 0.0 | 0.00 | 0.00 | 0.00 | 87 | 1008.7 |
| 20260509061704 | 58 | 206 | 0.0 | 0.0 | 0.00 | 0.00 | 0.00 | 87 | 1008.7 |
| 20260509061204 | 58 | 206 | 0.0 | 0.0 | 0.00 | 0.00 | 0.00 | 87 | 1008.7 |
| 20260509060703 | 59 | 206 | 0.0 | 0.0 | 0.00 | 0.00 | 0.00 | 86 | 1008.7 |
| 20260509060203 | 59 | 206 | 0.0 | 0.0 | 0.00 | 0.00 | 0.00 | 87 | 1008.7 |
| 20260509055204 | 59 | 240 | 0.0 | 0.0 | 0.00 | 0.00 | 0.00 | 86 | 1008.8 |
| 20260509054703 | 59 | 240 | 0.0 | 1.0 | 0.00 | 0.00 | 0.00 | 86 | 1008.8 |
| 20260509054204 | 59 | 203 | 1.0 | 2.0 | 0.00 | 0.00 | 0.00 | 86 | 1008.9 |
| 20260509053704 | 59 | 203 | 0.0 | 2.0 | 0.00 | 0.00 | 0.00 | 86 | 1008.9 |
| 20260509052704 | 59 | 198 | 1.0 | 2.0 | 0.00 | 0.00 | 0.00 | 85 | 1008.9 |
| 20260509052203 | 60 | 191 | 0.0 | 1.0 | 0.00 | 0.00 | 0.00 | 84 | 1008.8 |
| 20260509051203 | 60 | 236 | 0.0 | 0.0 | 0.00 | 0.00 | 0.00 | 83 | 1009.0 |
| 20260509045704 | 61 | 206 | 0.0 | 1.0 | 0.00 | 0.00 | 0.00 | 81 | 1009.0 |
| 20260509045204 | 61 | 208 | 0.0 | 0.0 | 0.00 | 0.00 | 0.00 | 81 | 1009.1 |
| 20260509044704 | 62 | 280 | 0.0 | 0.0 | 0.00 | 0.00 | 0.00 | 80 | 1009.1 |
| 20260509044204 | 62 | 280 | 0.0 | 0.0 | 0.00 | 0.00 | 0.00 | 78 | 1009.0 |
| 20260509043704 | 63 | 279 | 0.0 | 0.0 | 0.00 | 0.00 | 0.00 | 78 | 1009.2 |
| 20260509043204 | 63 | 280 | 0.0 | 0.0 | 0.00 | 0.00 | 0.00 | 77 | 1009.1 |
| 20260509041704 | 64 | 359 | 0.0 | 2.0 | 0.00 | 0.00 | 0.00 | 74 | 1009.0 |
| 20260509040204 | 65 | 281 | 1.0 | 5.0 | 0.00 | 0.00 | 0.00 | 72 | 1008.9 |
| 20260509035204 | 66 | 301 | 1.0 | 3.0 | 0.00 | 0.00 | 0.00 | 69 | 1008.9 |
| 20260509034204 | 67 | 274 | 1.0 | 6.0 | 0.00 | 0.00 | 0.00 | 66 | 1008.7 |
| 20260509033704 | 67 | 293 | 2.0 | 5.0 | 0.00 | 0.00 | 0.00 | 66 | 1008.6 |
| 20260509033204 | 67 | 315 | 2.0 | 3.0 | 0.00 | 0.00 | 0.00 | 65 | 1008.5 |
| 20260509032704 | 67 | 261 | 3.0 | 8.0 | 0.00 | 0.00 | 0.00 | 64 | 1008.6 |
| 20260509032204 | 67 | 280 | 3.0 | 12.0 | 0.00 | 0.00 | 0.00 | 63 | 1008.2 |
| 20260509031204 | 68 | 263 | 2.0 | 5.0 | 0.00 | 0.00 | 0.00 | 62 | 1007.6 |
| 20260509030704 | 68 | 253 | 2.0 | 6.0 | 0.00 | 0.00 | 0.00 | 62 | 1007.5 |
| 20260509030203 | 68 | 259 | 2.0 | 5.0 | 0.00 | 0.00 | 0.00 | 63 | 1007.4 |
| 20260509025703 | 68 | 258 | 3.0 | 5.0 | 0.00 | 0.00 | 0.00 | 62 | 1007.3 |
| 20260509025204 | 68 | 245 | 3.0 | 9.0 | 0.00 | 0.00 | 0.00 | 63 | 1007.2 |
| 20260509024203 | 68 | 234 | 4.0 | 12.0 | 0.00 | 0.00 | 0.00 | 63 | 1007.1 |
| 20260509023704 | 68 | 211 | 3.0 | 8.0 | 0.00 | 0.00 | 0.00 | 64 | 1006.9 |
| 20260509023204 | 68 | 237 | 3.0 | 12.0 | 0.00 | 0.00 | 0.00 | 64 | 1006.8 |
| 20260509022704 | 68 | 239 | 3.0 | 6.0 | 0.00 | 0.00 | 0.00 | 65 | 1006.8 |
| 20260509022204 | 68 | 193 | 3.0 | 7.0 | 0.00 | 0.00 | 0.00 | 65 | 1006.7 |
| 20260509021703 | 68 | 221 | 4.0 | 12.0 | 0.00 | 0.00 | 0.00 | 66 | 1006.8 |
| 20260509021203 | 68 | 209 | 3.0 | 7.0 | 0.00 | 0.00 | 0.00 | 66 | 1006.8 |
| 20260509020203 | 68 | 208 | 3.0 | 6.0 | 0.00 | 0.00 | 0.00 | 65 | 1006.4 |
| 20260509015704 | 68 | 216 | 4.0 | 8.0 | 0.00 | 0.00 | 0.00 | 65 | 1006.3 |
| 20260509015204 | 68 | 203 | 3.0 | 9.0 | 0.00 | 0.00 | 0.00 | 65 | 1006.3 |
| 20260509014704 | 68 | 199 | 5.0 | 10.0 | 0.00 | 0.00 | 0.00 | 66 | 1006.5 |
| 20260509014204 | 67 | 197 | 4.0 | 12.0 | 0.00 | 0.00 | 0.00 | 66 | 1006.2 |
| 20260509013203 | 67 | 203 | 2.0 | 5.0 | 0.00 | 0.00 | 0.00 | 65 | 1005.8 |
| 20260509012704 | 68 | 252 | 2.0 | 6.0 | 0.00 | 0.00 | 0.00 | 64 | 1005.5 |
| 20260509012204 | 68 | 151 | 3.0 | 5.0 | 0.00 | 0.00 | 0.00 | 63 | 1005.8 |
| 20260509011704 | 68 | 137 | 3.0 | 6.0 | 0.00 | 0.00 | 0.00 | 63 | 1006.3 |
| 20260509011204 | 67 | 158 | 1.0 | 3.0 | 0.00 | 0.00 | 0.00 | 63 | 1006.6 |
| 20260509010703 | 67 | 198 | 0.0 | 0.0 | 0.00 | 0.00 | 0.00 | 64 | 1006.9 |
| 20260509010203 | 68 | 202 | 0.0 | 0.0 | 0.00 | 0.00 | 0.00 | 65 | 1006.9 |
| 20260509005703 | 68 | 202 | 0.0 | 0.0 | 0.00 | 0.00 | 0.00 | 66 | 1006.8 |
| 20260509005203 | 68 | 202 | 0.0 | 0.0 | 0.00 | 0.00 | 0.00 | 64 | 1006.7 |
| 20260509004204 | 69 | 203 | 0.0 | 0.0 | 0.00 | 0.00 | 0.00 | 62 | 1006.5 |
| 20260509003704 | 69 | 203 | 0.0 | 0.0 | 0.00 | 0.00 | 0.00 | 61 | 1006.3 |
| 20260509003204 | 69 | 257 | 0.0 | 0.0 | 0.00 | 0.00 | 0.00 | 59 | 1006.3 |
| 20260509002704 | 70 | 257 | 0.0 | 1.0 | 0.00 | 0.00 | 0.00 | 58 | 1006.3 |